User: anonymous   Login
Location: Martley
(52.2333°N, 2.3667°W)
Time: 13:12:14
(UTC+00:00)
Language:

Nadezhda 4 Rocket - Orbit

View from above orbital plane
View from above orbital plane
View from above satellite
View from above satellite

Ground track
Ground track

The orbit data is extracted from the following two-line orbital elements,

1 23180U 94041B   20052.78704663 -.00000015  00000-0 -29933-4 0  9990
2 23180  82.9439 282.0717 0028998   0.5066  67.9723 13.77977269287819
Epoch (UTC): 21 February 2020 18:53:20
Eccentricity: 0.0028998
inclination: 82.9439°
perigee height: 950 km
apogee height: 992 km
right ascension of ascending node: 282.0717°
argument of perigee: 0.5066°
revolutions per day: 13.77977269
mean anomaly at epoch: 67.9723°
orbit number at epoch: 28781

The dashed part of the orbit path shows where the satellite is in the earth's shadow,  

DLR